Location: Hilton Head Island
(32.2163°N, 80.7526°W)
Time: 11:03:48
(UTC-04:00)

S-56A Canister/Altair - Pass Details

Date: 17 February 2026
Orbit: 633 x 2484 km, 38.9° (Epoch: 10 March)

Event Time Altitude Azimuth Distance (km) Brightness Sun altitude
Exits shadow 02:22:37 22° 74° (ENE) 3,146 10.8 -58.4°
Drops below altitude 10° 02:26:16 10° 80° (E) 4,257 11.6 -57.8°
Sets 02:30:28 0° 85° (E) 5,526 12.3 -57.0°
